Погода в Валь-д'Изер

Франция     45°26′54″N   6°58′50″E
темп.,
°C
ветер,
м/с
пор.,
м/с
влажн.,
%
обл.,
%
осадки,
мм/ч
давл.,
гПа
погр.,
м
17 апреля, сб
сб1723:00−16юв4395100 0.0 102815
02:00−15юв3394100 0.0 102613
05:00−15юв3393100 0.0 102413
08:00−12юв3285100 0.0 102219
11:00−8в124991 0.0 1016905
14:00−6всв116598 0.3 1015705
17:00−6юв118199 1.5 1014421
20:00−8ююв119581 4.1 101751
18 апреля, вс
вс1823:00−12ююв119769 0.8 102110
02:00−14ююв33780 0.8 102311
05:00−14ююв22620 0.0 102210
08:00−11ююз11845 0.0 102010
11:00−6сз218798 0.0 1016552
14:00−5сз3293100 0.4 1015566
17:00−5зсз3288100 0.8 1015554
20:00−8зсз229898 1.3 101831
19 апреля, пн
пн1923:00−13юв0110092 0.1 102310
02:00−13ююв119854 0.1 102410
05:00−14ююв118912 0.0 102210
08:00−10юв11873 0.0 102011
11:00−5сз21736 0.0 1015460
14:00−4зсз228969 0.0 1014601
17:00−4зсз328778 0.2 1014586
20:00−8з229763 0.4 101638
20 апреля, вт
вт2023:00−10з119986 0.1 101915
02:00−12юв229828 0.1 102112
05:00−12юв227817 0.0 101810
08:00−9юв228022 0.0 101713
11:00−5ююз01449 0.0 1012797
14:00−4з116536 0.4 1012660
17:00−3зсз217363 0.7 1011538
20:00−7зсз019265 0.9 101410
21 апреля, ср
ср2123:00−9ююв229563 0.1 101712
02:00−8юв229173 0.1 101610
05:00−10юв229158 0.0 101710
08:00−7юв119236 0.0 101525
11:00−5зсз117497 0.1 1012508
14:00−3з229086 0.9 1011541
17:00−3з228791 0.7 1010603
20:00−4зсз3398100 2.4 1011239